GW1804 Weather Reports


time (UTC)temp
C
wind
direction
speed
KPH
gust
KPH
rain 1hr
cm
rain 24hr
cm
rain mn
cm
humidity
%
barometer
mb
20260507225532 18 249 4.8 12.9 0.00 0.00 0.00 79 1014.7
20260507225032 18 287 4.8 12.9 0.00 0.00 0.00 79 1014.7
20260507224552 18 312 3.2 12.9 0.00 0.00 0.00 79 1014.7
20260507224032 18 236 4.8 17.7 0.00 0.00 0.00 79 1014.8
20260507223532 18 273 4.8 17.7 0.00 0.00 0.00 79 1014.9
20260507223050 18 271 8.0 17.7 0.00 0.00 0.00 78 1014.9
20260507222532 18 263 4.8 12.9 0.00 0.00 0.00 79 1014.9
20260507222032 18 229 6.4 12.9 0.00 0.00 0.00 78 1014.9
20260507221543 18 278 3.2 14.5 0.00 0.00 0.00 78 1015.0
20260507221031 19 265 3.2 14.5 0.00 0.00 0.00 77 1015.0
20260507220531 19 277 4.8 12.9 0.00 0.00 0.00 77 1015.1
20260507220054 19 284 4.8 16.1 0.00 0.00 0.00 77 1015.1
20260507215535 19 201 6.4 16.1 0.00 0.00 0.00 77 1015.1
20260507215031 19 299 6.4 17.7 0.00 0.00 0.00 77 1015.1
20260507214552 19 265 8.0 17.7 0.00 0.00 0.00 77 1015.2
20260507214033 19 283 4.8 16.1 0.00 0.00 0.00 77 1015.2
20260507213531 19 272 6.4 16.1 0.00 0.00 0.00 77 1015.3
20260507213049 20 293 6.4 14.5 0.00 0.00 0.00 76 1015.3
20260507212531 20 272 6.4 14.5 0.00 0.00 0.00 76 1015.2
20260507212031 20 242 6.4 14.5 0.00 0.00 0.00 75 1015.3
20260507211551 20 242 8.0 12.9 0.00 0.00 0.00 75 1015.3
20260507211034 20 284 6.4 14.5 0.00 0.00 0.00 76 1015.4
20260507210532 20 256 4.8 14.5 0.00 0.00 0.00 76 1015.4
20260507210047 20 254 6.4 19.3 0.00 0.00 0.00 76 1015.4
20260507205535 20 283 6.4 19.3 0.00 0.00 0.00 77 1015.5
20260507205034 20 213 8.0 16.1 0.00 0.00 0.00 76 1015.5
20260507204550 20 282 6.4 16.1 0.00 0.00 0.00 76 1015.6
20260507204034 20 277 8.0 19.3 0.00 0.00 0.00 77 1015.7
20260507203533 20 294 8.0 19.3 0.00 0.00 0.00 76 1015.5
20260507203045 20 219 8.0 17.7 0.00 0.00 0.00 76 1015.6
20260507202531 20 252 8.0 17.7 0.00 0.00 0.00 77 1015.6
20260507202031 20 308 8.0 16.1 0.00 0.00 0.00 77 1015.7
20260507201554 20 292 8.0 16.1 0.00 0.00 0.00 78 1015.7
20260507201031 20 242 9.7 16.1 0.00 0.00 0.00 77 1015.7
20260507200532 20 248 9.7 16.1 0.00 0.00 0.00 76 1015.7
20260507200046 20 244 6.4 16.1 0.00 0.00 0.00 77 1015.7
20260507195533 20 223 8.0 16.1 0.00 0.00 0.00 76 1015.7
20260507195033 20 296 6.4 16.1 0.00 0.00 0.00 76 1015.6
20260507194552 20 250 8.0 12.9 0.00 0.00 0.00 77 1015.7
20260507194031 20 298 6.4 12.9 0.00 0.00 0.00 77 1015.7
20260507193531 20 273 4.8 14.5 0.00 0.00 0.00 78 1015.6
20260507193054 19 243 6.4 16.1 0.00 0.00 0.00 77 1015.7
20260507192532 19 286 6.4 16.1 0.00 0.00 0.00 79 1015.7
20260507192031 18 252 6.4 17.7 0.00 0.00 0.00 79 1015.8
20260507191553 19 324 8.0 17.7 0.00 0.00 0.00 79 1015.8
20260507191031 18 256 8.0 16.1 0.00 0.00 0.00 78 1015.8
20260507190531 18 288 8.0 16.1 0.00 0.00 0.00 78 1015.9
20260507190057 19 277 6.4 14.5 0.00 0.00 0.00 79 1015.9
20260507185532 19 263 8.0 16.1 0.00 0.00 0.00 80 1016.0
20260507185035 19 306 4.8 16.1 0.00 0.00 0.00 80 1016.1
20260507184554 18 259 8.0 16.1 0.00 0.00 0.00 79 1016.2
20260507184031 18 292 8.0 16.1 0.00 0.00 0.00 79 1016.2
20260507183531 18 225 9.7 16.1 0.00 0.00 0.00 79 1016.2
20260507183052 18 288 6.4 12.9 0.00 0.00 0.00 79 1016.3
20260507182532 18 294 6.4 14.5 0.00 0.00 0.00 79 1016.3
20260507182033 18 273 6.4 14.5 0.00 0.00 0.00 79 1016.2
20260507181543 18 266 6.4 12.9 0.00 0.00 0.00 78 1016.2
20260507181035 18 319 4.8 12.9 0.00 0.00 0.00 79 1016.3
20260507180536 18 242 4.8 12.9 0.00 0.00 0.00 80 1016.3
20260507180047 18 303 4.8 11.3 0.00 0.00 0.00 79 1016.2
20260507175535 18 267 4.8 11.3 0.00 0.00 0.00 79 1016.3
20260507175035 18 259 3.2 11.3 0.00 0.00 0.00 80 1016.4
20260507174552 18 302 4.8 11.3 0.00 0.00 0.00 80 1016.4
20260507174036 18 297 3.2 11.3 0.00 0.00 0.00 80 1016.4
20260507173539 18 231 4.8 11.3 0.00 0.00 0.00 80 1016.4
20260507173047 18 312 3.2 11.3 0.00 0.00 0.00 80 1016.3
20260507172536 18 235 4.8 11.3 0.00 0.00 0.00 81 1016.3
20260507172034 18 228 4.8 14.5 0.00 0.00 0.00 81 1016.4
20260507171545 17 229 1.6 14.5 0.00 0.00 0.00 81 1016.3
20260507171035 17 327 3.2 11.3 0.00 0.00 0.00 82 1016.4
20260507170535 17 269 3.2 12.9 0.00 0.00 0.00 82 1016.5
20260507170052 17 215 3.2 12.9 0.00 0.00 0.00 81 1016.4
20260507165534 17 198 4.8 9.7 0.00 0.00 0.00 81 1016.5
20260507165031 17 0 1.6 9.7 0.00 0.00 0.00 82 1016.4
20260507164548 17 248 3.2 12.9 0.00 0.00 0.00 83 1016.5
20260507164032 17 313 3.2 12.9 0.00 0.00 0.00 83 1016.5
20260507163536 17 284 0.0 1.6 0.00 0.00 0.00 84 1016.5
20260507163047 17 0 0.0 1.6 0.00 0.00 0.00 84 1016.6
20260507162535 17 0 0.0 1.6 0.00 0.00 0.00 84 1016.6
20260507162035 17 0 0.0 1.6 0.00 0.00 0.00 84 1016.5
20260507161545 16 0 0.0 0.0 0.00 0.00 0.00 84 1016.6
20260507161039 16 0 0.0 0.0 0.00 0.00 0.00 84 1016.6
20260507160535 16 0 0.0 0.0 0.00 0.00 0.00 85 1016.5
20260507160054 16 0 0.0 0.0 0.00 0.00 0.00 85 1016.5
20260507155536 16 0 0.0 0.0 0.00 0.00 0.00 85 1016.6
20260507155032 16 0 0.0 0.0 0.00 0.00 0.00 86 1016.6
20260507154550 16 0 0.0 0.0 0.00 0.00 0.00 86 1016.7
20260507154033 16 0 0.0 0.0 0.00 0.00 0.00 86 1016.6
20260507153531 16 0 0.0 0.0 0.00 0.00 0.00 87 1016.6
20260507153057 16 0 0.0 0.0 0.00 0.00 0.00 87 1016.6
20260507152537 16 0 0.0 0.0 0.00 0.00 0.00 88 1016.5
20260507152034 16 0 0.0 0.0 0.00 0.00 0.00 88 1016.6
20260507151547 16 0 0.0 0.0 0.00 0.00 0.00 89 1016.6
20260507151035 16 0 0.0 0.0 0.00 0.00 0.00 89 1016.6
20260507150535 16 0 0.0 0.0 0.00 0.00 0.00 90 1016.5
20260507150048 16 0 0.0 0.0 0.00 0.00 0.00 90 1016.5
20260507145535 15 0 0.0 0.0 0.00 0.00 0.00 90 1016.5
20260507145035 15 0 0.0 0.0 0.00 0.00 0.00 90 1016.5
20260507144550 15 0 0.0 0.0 0.00 0.00 0.00 90 1016.5
20260507144037 15 0 0.0 0.0 0.00 0.00 0.00 90 1016.4
20260507143535 15 0 0.0 0.0 0.00 0.00 0.00 91 1016.3
20260507143048 15 0 0.0 0.0 0.00 0.00 0.00 91 1016.3
20260507142532 15 0 0.0 0.0 0.00 0.00 0.00 91 1016.3
20260507142032 15 0 0.0 0.0 0.00 0.00 0.00 91 1016.2
20260507141553 15 0 0.0 0.0 0.00 0.00 0.00 91 1016.2
20260507141035 15 0 0.0 0.0 0.00 0.00 0.00 91 1016.1
20260507140534 15 0 0.0 0.0 0.00 0.00 0.00 91 1016.2
20260507140051 15 0 0.0 0.0 0.00 0.00 0.00 91 1016.2
20260507135535 14 0 0.0 0.0 0.00 0.00 0.00 91 1016.1
20260507135035 14 0 0.0 0.0 0.00 0.00 0.00 91 1016.1
20260507134552 14 0 0.0 0.0 0.00 0.00 0.00 91 1016.0
20260507134035 14 0 0.0 0.0 0.00 0.00 0.00 90 1016.1
20260507133536 14 0 0.0 0.0 0.00 0.00 0.00 91 1016.0
20260507133055 14 0 0.0 0.0 0.00 0.00 0.00 91 1016.0
20260507132536 14 0 0.0 0.0 0.00 0.00 0.00 90 1016.0
20260507132033 14 0 0.0 0.0 0.00 0.00 0.00 90 1015.9
20260507131558 14 0 0.0 0.0 0.00 0.00 0.00 90 1015.9
20260507131032 14 0 0.0 0.0 0.00 0.00 0.00 90 1016.0
20260507130538 14 0 0.0 0.0 0.00 0.00 0.00 90 1015.9
20260507130058 13 0 0.0 0.0 0.00 0.00 0.00 90 1015.9
20260507125535 13 0 0.0 0.0 0.00 0.00 0.00 90 1015.8
20260507125034 13 0 0.0 0.0 0.00 0.00 0.00 90 1015.8
20260507124553 13 0 0.0 0.0 0.00 0.00 0.00 90 1015.8
20260507124033 13 0 0.0 0.0 0.00 0.00 0.00 90 1015.8
20260507123534 13 0 0.0 0.0 0.00 0.00 0.00 89 1015.7
20260507123047 13 0 0.0 0.0 0.00 0.00 0.00 89 1015.7
20260507122532 13 0 0.0 0.0 0.00 0.00 0.00 89 1015.7
20260507122032 13 0 0.0 0.0 0.00 0.00 0.00 89 1015.7
20260507121604 13 0 0.0 0.0 0.00 0.00 0.00 88 1015.6
20260507121035 13 0 0.0 0.0 0.00 0.00 0.00 88 1015.6
20260507120532 13 0 0.0 0.0 0.00 0.00 0.00 88 1015.6
20260507120047 13 0 0.0 0.0 0.00 0.00 0.00 88 1015.6
20260507115534 13 0 0.0 0.0 0.00 0.00 0.00 88 1015.6
20260507115033 13 0 0.0 0.0 0.00 0.00 0.00 88 1015.6
20260507114555 13 0 0.0 0.0 0.00 0.00 0.00 88 1015.7
20260507114033 13 0 0.0 0.0 0.00 0.00 0.00 88 1015.6
20260507113533 13 0 0.0 0.0 0.00 0.00 0.00 88 1015.7
20260507113048 14 0 0.0 0.0 0.00 0.00 0.00 88 1015.6
20260507112535 14 0 0.0 0.0 0.00 0.00 0.00 88 1015.7
20260507112032 14 0 0.0 0.0 0.00 0.00 0.00 88 1015.7
20260507111545 14 0 0.0 0.0 0.00 0.00 0.00 88 1015.8
20260507111035 14 0 0.0 0.0 0.00 0.00 0.00 88 1015.8
20260507110535 14 0 0.0 0.0 0.00 0.00 0.00 88 1015.8
20260507110049 14 0 0.0 0.0 0.00 0.00 0.00 88 1015.8
20260507105535 14 0 0.0 0.0 0.00 0.00 0.00 88 1015.8
20260507105036 14 0 0.0 0.0 0.00 0.00 0.00 88 1015.8
20260507104551 15 0 0.0 0.0 0.00 0.00 0.00 88 1015.9
20260507104033 15 0 0.0 0.0 0.00 0.00 0.00 88 1015.9
20260507103537 15 0 0.0 0.0 0.00 0.00 0.00 88 1016.0
20260507103045 15 0 0.0 0.0 0.00 0.00 0.00 88 1016.0
20260507102532 15 0 0.0 0.0 0.00 0.00 0.00 87 1016.0
20260507102032 15 0 0.0 0.0 0.00 0.00 0.00 87 1016.0
20260507101547 15 0 0.0 0.0 0.00 0.00 0.00 87 1016.0
20260507101034 15 0 0.0 0.0 0.00 0.00 0.00 87 1016.1
20260507100539 15 0 0.0 0.0 0.00 0.00 0.00 87 1016.1
20260507100048 15 0 0.0 0.0 0.00 0.00 0.00 88 1016.2
20260507095532 15 0 0.0 0.0 0.00 0.00 0.00 88 1016.2
20260507095032 15 0 0.0 0.0 0.00 0.00 0.00 88 1016.3
20260507094547 15 0 0.0 0.0 0.00 0.00 0.00 88 1016.3
20260507094032 15 0 0.0 1.6 0.00 0.00 0.00 88 1016.3
20260507093534 15 0 0.0 1.6 0.00 0.00 0.00 88 1016.3
20260507093055 15 0 0.0 0.0 0.00 0.00 0.00 88 1016.3
20260507092533 15 0 0.0 0.0 0.00 0.00 0.00 88 1016.4
20260507092034 15 0 0.0 0.0 0.00 0.00 0.00 88 1016.4
20260507091552 15 0 0.0 0.0 0.00 0.00 0.00 88 1016.5
20260507091032 15 0 0.0 0.0 0.00 0.00 0.00 88 1016.5
20260507090534 15 0 0.0 0.0 0.00 0.00 0.00 89 1016.5
20260507090052 15 0 0.0 0.0 0.00 0.00 0.00 89 1016.6
20260507085533 15 0 0.0 3.2 0.00 0.00 0.00 89 1016.6
20260507085032 15 0 0.0 3.2 0.00 0.00 0.00 89 1016.7
20260507084545 15 0 0.0 3.2 0.00 0.00 0.00 89 1016.7
20260507084032 15 0 0.0 1.6 0.00 0.00 0.00 89 1016.8
20260507083532 15 336 0.0 1.6 0.00 0.00 0.00 89 1016.7
20260507083047 15 0 0.0 1.6 0.00 0.00 0.00 89 1016.8
20260507082531 15 0 0.0 1.6 0.00 0.00 0.00 89 1016.9
20260507082032 15 0 0.0 0.0 0.00 0.00 0.00 89 1016.8
20260507081554 15 0 0.0 1.6 0.00 0.00 0.00 89 1016.8
20260507081038 15 0 0.0 1.6 0.00 0.00 0.00 89 1017.0
20260507080534 15 0 0.0 1.6 0.00 0.00 0.00 89 1017.0
20260507080057 15 0 0.0 1.6 0.00 0.00 0.00 88 1017.0
20260507075534 15 0 0.0 0.0 0.00 0.00 0.00 88 1017.1
20260507075034 15 0 0.0 0.0 0.00 0.00 0.00 88 1017.1
20260507074557 15 0 0.0 0.0 0.00 0.00 0.00 88 1017.2
20260507074034 15 0 0.0 0.0 0.00 0.00 0.00 88 1017.2
20260507073535 15 0 0.0 0.0 0.00 0.00 0.00 88 1017.2
20260507073045 15 0 0.0 0.0 0.00 0.00 0.00 87 1017.2
20260507072535 15 0 0.0 0.0 0.00 0.00 0.00 87 1017.3
20260507072033 15 0 0.0 0.0 0.00 0.00 0.00 87 1017.3
20260507071546 15 0 0.0 0.0 0.00 0.00 0.00 87 1017.3
20260507071035 15 0 0.0 0.0 0.00 0.00 0.00 87 1017.3
20260507070535 15 0 0.0 1.6 0.00 0.00 0.00 87 1017.3
20260507070045 15 0 0.0 1.6 0.00 0.00 0.00 87 1017.3
20260507065534 15 0 0.0 1.6 0.00 0.00 0.00 87 1017.3
20260507065034 15 0 0.0 1.6 0.00 0.00 0.00 87 1017.3
20260507064547 15 0 0.0 0.0 0.00 0.00 0.00 87 1017.3
20260507064037 15 0 0.0 0.0 0.00 0.00 0.00 87 1017.4
20260507063533 15 0 0.0 0.0 0.00 0.00 0.00 87 1017.3
20260507063047 15 0 0.0 0.0 0.00 0.00 0.00 87 1017.4
20260507062535 15 0 0.0 0.0 0.00 0.00 0.00 87 1017.4
20260507062033 15 0 0.0 0.0 0.00 0.00 0.00 87 1017.4
20260507061544 15 0 0.0 0.0 0.00 0.00 0.00 87 1017.4
20260507061033 15 0 0.0 0.0 0.00 0.00 0.00 87 1017.4
20260507060535 15 0 0.0 0.0 0.00 0.00 0.00 87 1017.3
20260507060048 15 0 0.0 0.0 0.00 0.00 0.00 87 1017.4
20260507055551 15 0 0.0 1.6 0.00 0.00 0.00 87 1017.4
20260507055038 15 0 0.0 1.6 0.00 0.00 0.00 87 1017.4
20260507054621 15 0 0.0 1.6 0.00 0.00 0.00 87 1017.5
20260507054035 15 0 0.0 0.0 0.00 0.00 0.00 87 1017.5
20260507053535 15 0 0.0 0.0 0.00 0.00 0.00 87 1017.4
20260507053049 15 0 0.0 0.0 0.00 0.00 0.00 87 1017.4
20260507052533 15 0 0.0 0.0 0.00 0.00 0.00 87 1017.4
20260507052032 15 0 0.0 0.0 0.00 0.00 0.00 87 1017.3
20260507051547 15 0 0.0 0.0 0.00 0.00 0.00 87 1017.4
20260507051035 15 0 0.0 1.6 0.00 0.00 0.00 87 1017.4
20260507050533 15 0 0.0 1.6 0.00 0.00 0.00 87 1017.3
20260507050056 15 0 0.0 1.6 0.00 0.00 0.00 87 1017.3
20260507045532 15 0 0.0 1.6 0.00 0.00 0.00 87 1017.3
20260507045033 15 0 0.0 1.6 0.00 0.00 0.00 87 1017.3
20260507044552 15 0 0.0 6.4 0.00 0.00 0.00 87 1017.3
20260507044032 15 336 0.0 6.4 0.00 0.00 0.00 87 1017.3
20260507043532 15 0 0.0 3.2 0.00 0.00 0.00 87 1017.3
20260507043053 15 0 0.0 3.2 0.00 0.00 0.00 87 1017.3
20260507042533 15 0 0.0 1.6 0.00 0.00 0.00 86 1017.2
20260507042032 15 0 0.0 3.2 0.00 0.00 0.00 86 1017.2
20260507041559 15 0 0.0 3.2 0.00 0.00 0.00 86 1017.2
20260507041032 15 0 0.0 4.8 0.00 0.00 0.00 86 1017.1
20260507040533 16 0 0.0 4.8 0.00 0.00 0.00 86 1017.2
20260507040051 16 0 0.0 3.2 0.00 0.00 0.00 86 1017.1
20260507035533 16 0 0.0 3.2 0.00 0.00 0.00 86 1017.2
20260507035032 16 331 0.0 4.8 0.00 0.00 0.00 86 1017.1
20260507034558 16 0 0.0 4.8 0.00 0.00 0.00 86 1017.1
20260507034032 16 340 0.0 3.2 0.00 0.00 0.00 86 1017.1
20260507033532 16 336 0.0 3.2 0.00 0.00 0.00 86 1017.0
20260507033046 16 0 0.0 3.2 0.00 0.00 0.00 85 1017.0
20260507032531 16 0 0.0 4.8 0.00 0.00 0.00 85 1017.0
20260507032032 16 323 0.0 4.8 0.00 0.00 0.00 85 1016.9
20260507031555 16 0 0.0 4.8 0.00 0.00 0.00 85 1016.9
20260507031033 16 289 1.6 4.8 0.00 0.00 0.00 85 1016.8
20260507030533 16 287 1.6 4.8 0.00 0.00 0.00 84 1016.8
20260507030056 16 0 1.6 4.8 0.00 0.00 0.00 84 1016.7
20260507025532 16 0 0.0 4.8 0.00 0.00 0.00 83 1016.7
20260507025032 16 302 0.0 4.8 0.00 0.00 0.00 83 1016.7
20260507024548 16 302 1.6 4.8 0.00 0.00 0.00 83 1016.6
20260507024032 16 292 1.6 4.8 0.00 0.00 0.00 83 1016.5
20260507023534 17 289 1.6 6.4 0.00 0.00 0.00 82 1016.5
20260507023051 17 306 3.2 8.0 0.00 0.00 0.00 82 1016.6
20260507022535 17 291 3.2 9.7 0.00 0.00 0.00 81 1016.5
20260507022034 17 296 3.2 11.3 0.00 0.00 0.00 80 1016.5
20260507021546 17 290 4.8 11.3 0.00 0.00 0.00 80 1016.5
20260507021031 17 293 3.2 11.3 0.00 0.00 0.00 80 1016.5
20260507020531 17 302 3.2 11.3 0.00 0.00 0.00 80 1016.5
20260507020050 17 303 4.8 11.3 0.00 0.00 0.00 80 1016.4
20260507015534 17 281 4.8 12.9 0.00 0.00 0.00 80 1016.3
20260507015031 18 296 4.8 12.9 0.00 0.00 0.00 80 1016.3
20260507014555 18 286 6.4 14.5 0.00 0.00 0.00 79 1016.3
20260507014035 18 279 4.8 14.5 0.00 0.00 0.00 79 1016.4
20260507013534 18 309 4.8 12.9 0.00 0.00 0.00 78 1016.3
20260507013048 18 302 6.4 14.5 0.00 0.00 0.00 77 1016.3
20260507012532 18 323 6.4 14.5 0.00 0.00 0.00 78 1016.4
20260507012034 18 271 4.8 14.5 0.00 0.00 0.00 78 1016.4
20260507011548 18 312 6.4 14.5 0.00 0.00 0.00 77 1016.3
20260507011031 18 305 6.4 12.9 0.00 0.00 0.00 77 1016.3
20260507010531 18 328 4.8 14.5 0.00 0.00 0.00 77 1016.2
20260507010045 18 309 8.0 14.5 0.00 0.00 0.00 76 1016.2
20260507005531 18 269 4.8 14.5 0.00 0.00 0.00 76 1016.3
20260507005034 18 259 6.4 12.9 0.00 0.00 0.00 77 1016.2
20260507004546 18 309 6.4 12.9 0.00 0.00 0.00 77 1016.2
20260507004035 18 37 6.4 17.7 0.00 0.00 0.00 77 1016.1
20260507003531 18 326 6.4 17.7 0.00 0.00 0.00 77 1016.2
20260507003052 18 304 8.0 17.7 0.00 0.00 0.00 78 1016.1
20260507002531 18 272 8.0 20.9 0.00 0.00 0.00 78 1016.1
20260507002031 18 275 8.0 20.9 0.00 0.00 0.00 78 1016.2
20260507001543 18 251 9.7 17.7 0.00 0.00 0.00 77 1016.1
20260507001034 19 280 9.7 19.3 0.00 0.00 0.00 78 1016.0
20260507000534 19 298 8.0 19.3 0.00 0.00 0.00 77 1016.0
20260507000044 19 271 6.4 17.7 0.00 0.00 0.00 78 1015.9
20260506235531 19 255 8.0 17.7 0.00 0.00 0.00 77 1015.9
20260506235030 19 342 8.0 17.7 0.00 0.00 0.00 76 1015.9
20260506234548 19 290 6.4 14.5 0.00 0.00 0.00 77 1015.8
20260506234036 19 311 6.4 16.1 0.00 0.00 0.00 77 1015.8
20260506233537 19 277 6.4 16.1 0.00 0.00 0.00 77 1015.8
20260506233055 19 306 8.0 16.1 0.00 0.00 0.00 76 1015.9
20260506232535 19 290 8.0 14.5 0.00 0.00 0.00 76 1015.9
20260506232035 19 219 9.7 17.7 0.00 0.00 0.00 76 1015.9
20260506231549 19 276 9.7 17.7 0.00 0.00 0.00 75 1016.0
20260506231036 19 302 6.4 22.5 0.00 0.00 0.00 76 1016.1
20260506230537 19 298 9.7 22.5 0.00 0.00 0.00 75 1016.1
20260506230052 19 316 9.7 22.5 0.00 0.00 0.00 75 1016.1